#timestamp,LO_Frequency,Hit 
1503237615.5,286046995.4,N
1503237635.3,286046994.9,N
1503237655.2,286046999.3,N
1503237675.9,286047002.0,N
1503237695.7,286047003.5,N
1503237715.6,286047004.2,N
1503237735.4,286047002.2,N
1503237755.2,286047001.8,N
1503237775.0,286047004.0,N
1503237775.9,286047004.0,N
1503237795.8,286047003.0,N
1503237815.6,286047003.2,N
1503237835.4,286047002.6,N
1503237855.3,286046998.9,N
1503237875.1,286046996.6,N
1503237876.0,286046996.6,N
1503237895.8,286046998.7,N
1503237915.7,286046998.6,N
1503237935.5,286046998.1,N
1503237955.3,286046998.2,N
1503237975.2,286047000.6,N
1503237995.9,286047000.7,N
1503238015.7,286046999.1,N
1503238035.6,286046995.2,N
1503238055.4,286046993.6,N
1503238075.2,286046995.6,N
1503238095.0,286046994.5,N
1503238095.9,286046994.5,N
1503238115.8,286046992.2,N
1503238135.6,286046991.4,N
1503238155.4,286046992.5,N
1503238175.3,286046991.9,N
1503238195.1,286046992.4,N
1503238215.8,286046992.2,N
1503238235.7,286046991.8,N
1503238255.5,286046993.4,N
1503238275.3,286046998.2,N
1503238295.2,286046998.8,N
1503238315.9,286047000.3,N
1503238335.7,286047001.7,N
1503238355.6,286047003.2,N
1503238375.4,286047005.0,N
1503238395.2,286047004.7,N
1503238415.1,286047007.0,N
1503238416.0,286047007.0,N
1503238435.8,286047009.0,N
1503238455.6,286047004.6,N
1503238475.4,286047005.0,N
1503238495.3,286047003.3,N
1503238515.1,286047005.9,N
1503238535.8,286047004.5,N
1503238555.7,286047006.8,N
1503238575.5,286047010.8,N
1503238595.3,286047011.7,N
1503238615.2,286047008.2,N
1503238635.9,286047010.0,N
1503238655.7,286047011.7,N
1503238675.6,286047009.4,N
1503238695.4,286047009.1,N
1503238715.2,286047009.0,N
1503238735.1,286047009.1,N
1503238736.0,286047009.1,N
1503238755.8,286047006.8,N
1503238775.6,286047004.7,N
1503238795.5,286047005.0,N
1503238815.3,286047004.4,N
1503238835.1,286047001.4,N
1503238855.9,286047002.6,N
1503238875.7,286047002.3,N
1503238895.5,286047000.1,N
1503238915.3,286047000.1,N
1503238935.2,286047001.8,N
1503238955.9,286047004.2,N
1503238975.7,286047004.8,N
1503238995.6,286047006.3,N
1503239015.4,286047007.3,N
1503239035.2,286047004.5,N
1503239055.1,286047008.2,N
1503239056.0,286047008.2,N
1503239075.8,286047009.1,N
1503239095.6,286047008.7,N
1503239115.5,286047010.2,P
1503239135.3,286047002.8,N
1503239155.1,286047002.6,N
1503239175.9,286047003.5,N
1503239195.7,286047003.2,N
1503239215.5,286047005.3,N
1503239235.4,286047005.4,N
1503239255.2,286047003.9,N
1503239275.0,286047002.5,N
1503239275.9,286047002.5,N
1503239295.8,286047004.2,N
1503239315.6,286047003.1,N
1503239335.4,286047003.3,N
1503239355.3,286047003.5,N
1503239375.1,286047006.0,P
1503239376.0,286047006.0,P
1503239395.8,286047002.8,P
1503239415.7,286047002.4,N
1503239435.5,286046998.2,N
1503239455.3,286046998.2,N
1503239475.2,286046998.8,N
1503239495.9,286046998.5,N
1503239515.7,286046996.9,N
1503239535.5,286046998.5,N
1503239555.4,286046997.6,N
1503239575.2,286046997.6,N
1503239595.0,286046991.8,N
1503239595.9,286046991.8,N
1503239615.8,286046996.0,N
1503239635.6,286046994.4,N
1503239655.4,286046994.4,N
1503239675.3,286046996.0,N
1503239695.1,286046999.2,N
1503239696.0,286046999.2,N
1503239715.8,286046999.1,N
1503239735.7,286046997.2,N
1503239755.5,286046996.8,N
1503239775.3,286046997.5,N
1503239795.2,286046997.8,N
1503239815.9,286047000.5,N
1503239835.7,286047001.2,N
1503239855.5,286046998.3,N
1503239875.4,286046998.2,N
1503239895.2,286046998.7,N
1503239915.0,286046999.5,N
1503239915.9,286046999.5,N
1503239935.8,286046998.4,N
1503239955.6,286047000.5,N
1503239975.4,286046998.3,N
1503239995.3,286046997.5,N
1503240015.1,286046996.2,N
1503240035.8,286046996.2,N
1503240055.7,286046996.3,N
1503240075.5,286046993.7,N
1503240095.3,286047002.3,N
1503240115.2,286047002.7,N
1503240135.9,286047004.4,N
1503240155.7,286047003.1,N
1503240175.6,286047004.1,N
1503240195.4,286047002.5,N
1503240215.2,286047000.0,N
1503240235.0,286047001.1,N
1503240236.0,286047001.1,N
1503240255.8,286046998.7,N
1503240275.6,286046997.9,N
1503240295.4,286046996.6,N
1503240315.3,286046997.5,N
1503240335.1,286046995.6,N
1503240355.8,286046995.3,N
1503240375.7,286046998.0,N
1503240395.5,286046995.5,N
1503240415.3,286046996.4,N
1503240435.2,286046993.0,N
1503240455.9,286046990.5,P
1503240475.7,286046990.6,N
1503240495.6,286046989.1,N
1503240515.4,286046990.0,N
1503240535.2,286046988.2,P
1503240555.1,286046993.4,P
1503240556.0,286046993.4,P
1503240575.8,286046996.2,N
1503240595.6,286046997.6,N
1503240615.5,286046997.0,N
1503240635.3,286046998.5,N
1503240655.1,286046999.6,N
1503240675.9,286046995.5,N
1503240695.7,286046993.9,N
1503240715.5,286046993.0,N
1503240735.4,286046988.5,P
1503240755.2,286046992.5,N
1503240775.0,286046988.7,P
1503240775.9,286046988.7,P
1503240795.8,286046998.8,N
1503240815.6,286047001.0,N
1503240835.4,286046999.3,N
1503240855.3,286047001.1,N
1503240875.1,286046998.7,N
1503240876.0,286046998.7,N
1503240895.8,286046996.6,N
1503240915.7,286046997.1,N
1503240935.5,286046995.8,N
1503240955.3,286046994.0,N
1503240975.2,286046994.0,N
1503240995.9,286046996.1,N
1503241015.7,286046992.1,N
1503241035.5,286046994.5,N
1503241055.4,286046994.6,N
1503241075.2,286046995.8,N
1503241095.0,286046997.3,N
1503241095.9,286046997.3,N
1503241115.8,286046998.6,N
1503241135.6,286047000.9,N
1503241155.4,286046999.9,N
1503241175.3,286047002.0,N
1503241195.1,286047001.0,N
